Location: Austin
(30.3000°N, 97.7500°W)
Time: 06:14:25
(UTC-05:00)

CZ-2D R/B - Pass Details

Date: 16 June 2025
Orbit: 789 x 842 km, 98.8° (Epoch: 07 July)

Event Time Altitude Azimuth Distance (km) Brightness Sun altitude
Rises 05:05:04 0° 350° (N) 3,363 5.7 -15.9°
Reaches altitude 10° 05:08:25 10° 328° (NNW) 2,415 4.7 -15.3°
Maximum altitude 05:11:20 15° 294° (WNW) 2,066 4.0 -14.8°
Enters shadow 05:13:11 13° 272° (W) 2,201 3.9 -14.5°
